Temperature
26 25 24 24 22 22 21 21 21 20 20 20 20 20 20 20 20 20 20 19 19 19 19 19 19 19 19 19 19 19 19 19 19 19 19 19 19 19 19 19 19 19 19
26 25 25 24 23 22 21 21 21 21 20 20 20 20 20 20 20 20 20 19 19 19 19 19 19 19 19 19 19 19 19 19 19 19 19 19 19 19 19 19 19 19 19
26 25 25 24 23 22 21 21 21 21 21 20 20 20 20 20 20 20 20 19 19 19 19 19 19 19 19 19 19 19 19 19 19 19 19 19 19 19 19 19 19 19 19
27 26 25 24 23 22 22 21 21 21 21 20 20 20 20 20 20 20 20 19 19 19 19 19 19 19 19 19 19 19 19 19 19 19 19 20 20 19 19 19 19 19 19
26 25 25 24 24 23 22 21 21 21 21 20 20 20 20 20 20 20 20 19 19 19 19 19 19 19 19 19 19 19 19 19 19 19 19 19 19 19 19 19 19 19 19
27 26 25 24 24 23 22 22 21 21 21 20 20 20 20 20 20 20 19 19 19 19 19 19 19 19 19 19 19 19 19 19 19 19 19 19 19 19 19 19 19 19 19
26 25 25 24 23 23 22 22 21 21 21 20 20 20 20 20 19 19 19 19 19 19 19 19 19 19 19 19 19 19 19 19 19 19 19 19 19 19 19 19 19 19 18
26 25 24 24 23 23 22 22 21 21 20 20 20 20 20 19 19 19 19 19 19 19 19 19 19 19 19 19 19 18 19 19 19 18 19 19 19 19 19 19 18 18 18
26 25 24 24 23 23 22 22 21 21 20 20 20 20 20 19 19 19 19 19 19 19 19 19 19 19 18 18 18 18 18 18 18 18 18 18 18 18 18 18 18 18 18
26 25 24 23 23 23 22 22 21 21 20 20 20 19 20 20 20 19 19 19 19 19 19 19 19 18 18 18 18 18 18 18 18 18 18 18 18 18 18 18 18 18 18
25 25 24 23 23 22 22 21 21 20 20 20 20 19 19 19 19 19 19 19 19 19 19 19 18 18 18 18 18 18 18 18 18 18 18 18 18 18 18 18 18 18 18
25 24 23 23 22 22 21 21 20 20 20 20 20 19 19 19 19 19 19 18 18 18 18 18 18 18 18 18 18 18 18 18 17 17 17 18 17 17 17 17 17 17 17
25 24 23 22 22 21 21 20 20 20 19 19 19 19 19 18 18 18 18 18 18 18 18 18 18 18 18 18 18 18 18 17 17 17 17 17 17 17 17 17 17 17 17
24 23 22 22 21 21 20 20 19 19 19 19 19 19 19 18 18 18 18 18 18 18 18 18 18 17 17 17 17 17 17 17 17 17 17 17 17 17 17 17 17 16 16
24 23 22 21 21 20 20 20 19 19 19 19 18 18 18 18 18 18 18 17 17 17 17 17 17 17 17 17 17 17 17 17 17 17 17 17 17 17 17 16 16 16 16
23 22 22 21 20 20 19 19 19 19 19 18 18 18 18 17 17 17 17 17 17 17 17 17 17 17 17 17 17 17 16 16 16 16 16 16 16 16 16 16 16 16 15
22 22 21 21 20 20 19 19 19 18 18 18 18 18 17 17 17 17 17 17 17 17 17 16 16 16 16 16 16 16 16 16 16 16 16 16 16 16 16 16 15 15 15
22 21 21 21 20 20 19 19 18 18 18 18 17 17 17 17 17 16 16 16 16 16 16 16 16 16 16 16 16 16 16 15 15 15 15 15 15 15 15 15 15 15 15
21 21 20 20 20 19 19 18 18 18 18 17 17 17 17 17 17 16 16 16 16 16 16 16 16 16 16 16 16 16 15 15 15 15 15 15 15 15 15 15 15 14 14
20 20 20 19 19 18 18 18 18 17 17 17 17 16 16 16 16 16 16 16 16 16 16 15 16 15 15 15 15 15 15 15 15 14 14 14 14 15 14 14 14 14 14
20 19 19 18 18 18 17 17 17 17 16 16 16 16 16 16 16 16 15 15 15 15 15 15 15 15 15 15 15 15 15 14 14 14 14 14 14 14 14 14 14 14 14
19 19 18 17 17 17 17 16 16 16 16 16 16 16 15 15 15 15 15 15 15 15 15 15 15 14 14 14 14 14 14 14 14 14 14 14 14 14 14 14 14 14 13
18 18 17 17 16 16 16 16 16 16 16 15 15 15 15 15 15 15 15 14 14 14 14 14 14 14 14 14 14 14 14 14 14 14 13 14 14 14 14 14 13 13 13
17 17 17 16 16 16 15 15 15 15 15 15 15 15 15 15 15 14 14 14 14 14 14 14 14 14 14 14 14 14 14 14 13 13 13 13 13 13 13 13 13 13 13
17 16 16 16 15 15 15 15 15 15 15 15 15 15 14 14 14 14 14 14 14 14 14 14 14 14 14 14 14 13 13 13 13 13 13 13 13 13 13 13 13 12 12
16 16 15 15 15 15 14 14 14 14 14 14 14 14 14 14 14 14 14 14 14 14 14 14 14 13 13 13 13 13 13 13 13 13 13 12 12 12 12 12 12 12 12
Wind_Speed
12 11 11 11 11 9 8 6 5 5 3 2 2 2 2 2 2 2 3 3 2 2 2 2 2 1 1 1 0 0 1 1 0 1 1 0 2 3 3 2 2 2 3
12 11 11 11 11 10 8 7 6 5 3 2 1 1 1 1 2 2 3 3 1 1 1 1 1 1 1 1 1 1 1 1 1 1 0 0 1 1 1 3 2 2 2
13 12 11 11 11 10 9 8 7 6 5 4 2 1 2 1 1 2 2 2 1 1 1 1 1 1 1 0 1 1 1 1 0 0 1 1 0 1 0 1 2 2 1
12 12 11 10 10 10 9 8 7 5 4 4 3 3 2 2 2 2 2 2 1 1 1 1 1 1 1 1 1 1 1 1 1 0 1 1 2 1 0 0 1 1 1
11 10 10 10 10 10 9 9 8 5 4 4 3 2 2 2 1 2 2 1 1 1 1 1 1 1 2 1 2 2 2 1 1 1 0 1 2 2 2 1 1 1 1
10 10 9 9 8 9 9 9 8 6 4 3 3 2 2 1 1 2 1 1 1 1 2 2 1 1 1 0 0 1 1 2 2 2 1 1 0 1 1 2 2 1 1
8 7 8 8 8 8 8 8 8 6 5 4 3 2 2 2 1 1 1 1 1 1 1 1 1 1 1 0 1 1 1 1 1 1 1 2 2 1 0 1 1 1 1
8 7 6 7 7 7 7 8 8 6 6 5 4 3 3 2 1 1 1 1 0 1 1 2 1 1 1 0 1 0 1 0 1 1 1 2 2 2 1 1 1 2 1
10 9 6 7 7 7 7 7 7 6 5 5 4 3 2 1 0 0 0 1 1 0 1 1 1 1 0 0 0 0 0 0 1 1 2 1 2 2 2 2 2 1 2
10 9 8 5 6 6 6 6 7 6 5 5 4 4 3 2 1 1 1 0 1 1 1 1 1 0 0 0 1 1 0 1 1 1 2 2 2 2 3 2 2 1 2
8 8 8 6 5 6 6 5 6 6 6 5 4 3 3 3 2 2 1 1 1 1 1 0 0 1 1 1 1 1 1 1 1 1 1 2 2 3 3 3 2 2 1
8 8 8 7 5 5 5 4 4 4 4 4 4 3 3 2 2 1 1 1 1 1 1 1 1 1 1 1 1 2 1 1 2 2 1 2 2 2 3 3 3 3 2
8 8 7 6 5 5 4 4 3 3 3 3 4 3 3 2 2 1 1 1 1 1 1 1 1 1 1 1 1 2 2 1 1 1 1 1 2 2 3 3 3 4 4
7 7 6 5 4 4 4 3 2 2 2 2 2 3 3 3 3 2 2 1 1 1 1 0 1 1 1 1 2 2 2 2 2 1 1 1 1 2 3 3 3 4 4
7 6 5 4 4 3 3 2 1 1 2 2 2 2 2 2 2 2 1 1 1 1 0 0 1 1 1 2 2 3 2 2 2 2 1 1 1 2 2 3 3 4 4
6 5 5 4 4 3 2 1 0 1 1 2 2 2 2 2 2 2 2 1 1 1 1 0 0 1 2 4 4 3 3 2 2 2 2 2 1 2 2 3 3 3 4
5 4 3 4 4 4 3 2 1 1 1 2 2 2 1 2 2 2 2 2 1 1 1 1 0 1 2 4 4 4 4 2 2 2 2 4 2 1 2 4 4 4 5
5 3 2 2 3 3 3 2 1 1 1 1 1 1 1 2 2 1 1 1 1 1 1 1 1 1 1 2 3 4 3 3 2 2 2 2 2 4 4 4 4 4 4
5 3 2 2 1 1 1 1 1 1 1 1 1 1 1 1 1 1 1 1 2 2 2 2 2 1 1 3 3 3 3 2 3 2 1 1 1 3 4 3 4 5 5
4 3 2 3 2 1 1 1 1 1 1 0 0 0 1 1 1 2 2 1 2 2 2 2 2 2 2 2 2 2 2 3 3 2 2 1 1 3 3 3 4 5 5
4 4 3 3 3 2 2 1 1 2 2 1 1 1 1 2 2 1 1 1 2 2 2 2 3 3 3 2 2 2 2 3 4 4 2 2 3 3 4 4 4 6 6
4 4 4 4 3 3 2 1 1 1 1 1 1 1 1 2 1 1 1 2 2 2 2 2 3 3 2 1 1 3 4 4 4 4 3 3 4 4 6 5 6 8 7
3 3 3 3 3 3 3 2 2 2 1 1 1 1 2 1 1 1 2 2 2 2 3 3 3 3 1 1 2 3 4 6 4 4 5 5 5 5 5 7 8 7 5
1 1 1 1 2 3 3 3 3 2 2 1 1 1 2 1 1 1 2 2 2 3 3 3 3 3 1 1 1 2 3 4 4 5 5 6 6 6 5 5 5 5 5
0 1 1 0 1 2 2 3 2 1 2 2 2 2 2 2 2 2 2 3 2 2 3 2 2 2 2 2 2 2 2 3 4 4 5 4 3 3 4 3 3 3 3
1 1 1 1 2 2 2 3 2 2 2 2 2 3 3 2 2 2 1 1 1 2 2 2 2 2 2 2 3 3 4 5 4 3 4 4 4 3 3 3 3 3 3
Wind_Direction
149 146 145 138 133 129 130 132 127 122 129 124 129 127 126 128 123 115 97 95 71 55 41 48 54 56 78 64 47 295 238 208 102 80 13 329 208 163 161 176 174 167 162
147 149 150 144 140 139 140 135 134 135 142 122 121 128 122 120 113 94 100 102 88 48 98 55 43 52 88 39 273 239 264 223 148 155 105 31 355 352 180 162 177 174 170
153 156 155 149 146 144 147 151 148 148 158 150 149 123 120 96 99 118 120 110 107 80 40 54 45 332 71 291 237 298 231 270 215 139 168 165 160 275 2 140 150 140 160
147 158 160 157 154 151 151 145 144 152 155 160 164 163 155 144 142 127 118 118 120 112 102 81 75 18 39 343 301 15 301 271 268 230 188 186 163 178 276 352 119 161 168
142 149 154 156 155 153 153 148 145 148 149 168 170 171 150 128 135 124 114 132 155 162 108 84 67 68 73 27 354 16 350 355 334 301 270 233 208 212 197 223 249 221 185
137 141 141 139 142 146 147 146 143 145 151 164 155 154 152 149 129 114 138 188 158 159 139 136 99 74 104 109 17 357 32 21 356 343 339 320 272 223 198 215 236 241 249
117 126 135 142 139 137 142 138 140 149 152 156 153 161 171 171 157 196 201 231 186 153 121 127 124 122 178 182 75 64 40 18 347 331 328 327 326 330 283 231 262 262 269
126 121 130 140 143 142 137 139 141 151 161 164 167 170 176 194 195 234 280 264 4 72 108 113 149 178 218 164 108 188 176 62 306 326 344 327 331 322 309 259 269 287 288
131 126 122 135 138 142 136 140 145 155 162 159 160 164 178 217 232 198 303 334 340 323 87 108 121 104 72 27 11 295 325 331 299 312 311 290 306 310 312 302 275 255 276
136 133 127 119 136 136 131 138 148 157 160 162 175 174 171 188 203 246 148 103 1 14 47 41 51 28 312 325 251 267 298 166 232 269 318 326 304 305 302 301 301 287 250
122 119 124 128 118 119 124 124 147 157 160 167 176 168 166 184 201 212 198 162 198 227 209 219 281 284 313 315 304 270 270 277 272 267 273 287 307 316 319 320 321 314 302
122 121 117 109 103 99 104 111 133 150 160 160 160 163 162 178 195 191 173 204 203 225 233 230 253 256 274 300 298 292 272 278 293 301 306 303 304 313 321 321 318 311 291
113 111 109 103 93 87 87 99 114 138 141 142 156 155 164 181 193 192 176 196 203 219 250 273 287 308 319 310 313 306 296 284 286 292 292 297 307 310 309 306 309 309 307
113 110 110 109 100 93 90 90 95 118 130 142 166 163 179 184 191 199 183 175 195 213 209 250 307 326 339 330 308 297 283 290 286 285 287 297 310 309 302 298 305 305 304
124 118 118 115 114 103 93 91 89 103 130 157 187 167 191 179 182 190 186 178 200 209 159 316 336 325 305 322 324 298 276 275 291 292 304 304 333 348 324 317 326 320 314
130 125 124 125 125 125 123 116 145 108 128 176 179 161 172 173 186 195 186 190 197 202 150 159 347 321 318 344 351 330 308 293 281 302 315 287 347 337 316 315 315 308 301
132 125 130 141 146 151 147 153 157 149 164 165 146 146 161 170 190 212 190 198 202 199 225 243 181 103 349 344 338 320 298 293 287 290 297 298 313 337 308 297 289 290 283
131 124 129 135 155 158 150 154 183 177 168 136 150 178 197 200 193 210 201 199 201 211 226 214 203 177 311 322 317 305 277 280 287 282 284 299 321 318 323 303 296 286 284
113 117 125 120 89 104 112 159 203 203 191 166 176 255 255 231 197 217 230 228 215 223 224 215 213 215 292 303 301 295 273 272 275 263 261 260 289 325 332 315 303 296 290
88 84 74 70 65 62 61 338 308 296 277 256 283 277 278 287 269 240 237 239 234 230 224 218 227 238 241 241 252 275 271 279 281 264 226 205 251 289 299 293 293 296 304
76 69 59 54 49 47 53 359 322 316 329 326 308 280 267 264 255 240 238 232 251 246 233 227 230 235 233 217 207 220 273 298 295 288 271 285 294 279 274 276 275 278 288
67 64 59 45 36 33 30 354 329 322 339 347 340 333 308 279 261 237 257 252 252 256 252 249 251 239 226 218 226 236 254 282 289 294 303 299 300 281 270 270 275 281 283
63 64 64 41 23 20 4 330 335 346 356 18 10 337 310 295 296 248 250 259 242 249 263 262 264 261 234 230 232 246 268 283 287 299 308 308 283 267 260 258 268 277 274
116 101 84 39 3 352 343 338 341 344 346 345 323 281 282 283 299 278 259 253 253 243 248 258 269 279 273 287 313 288 276 280 285 294 292 280 264 261 266 262 258 257 265
83 105 107 11 329 340 335 332 339 339 320 310 294 285 281 281 262 262 272 257 260 235 245 269 271 278 282 284 274 252 264 272 275 285 278 272 278 259 255 258 259 266 271
28 11 353 327 326 333 332 337 335 325 303 293 300 298 287 287 280 264 278 355 229 182 189 225 255 257 253 271 268 261 254 264 266 261 266 271 270 275 274 277 277 275 279
Height
1503 1506 1509 1511 1512 1514 1515 1516 1517 1518 1520 1521 1522 1523 1524 1525 1525 1525 1525 1525 1525 1526 1526 1526 1526 1526 1526 1526 1527 1527 1528 1528 1529 1529 1530 1530 1530 1531 1531 1532 1532 1533 1533
1502 1505 1508 1510 1512 1514 1515 1516 1517 1518 1520 1521 1522 1523 1524 1525 1526 1526 1526 1526 1526 1526 1526 1525 1526 1526 1526 1526 1527 1527 1527 1528 1529 1529 1529 1530 1531 1530 1531 1531 1532 1532 1532
1499 1503 1507 1509 1511 1513 1514 1516 1517 1518 1520 1521 1522 1524 1525 1525 1526 1526 1526 1526 1526 1526 1525 1526 1526 1526 1526 1526 1526 1527 1527 1527 1528 1528 1529 1529 1529 1530 1530 1530 1531 1531 1531
1497 1501 1505 1508 1510 1512 1514 1516 1517 1518 1520 1521 1522 1523 1525 1525 1526 1526 1526 1526 1526 1526 1526 1526 1526 1526 1526 1525 1526 1526 1526 1526 1527 1527 1528 1529 1529 1529 1529 1530 1530 1530 1530
1495 1499 1504 1507 1509 1512 1514 1515 1516 1518 1519 1520 1522 1523 1525 1525 1526 1526 1526 1526 1526 1526 1526 1526 1525 1525 1525 1525 1525 1525 1525 1525 1525 1526 1527 1527 1528 1528 1528 1528 1529 1529 1529
1495 1499 1502 1505 1508 1510 1512 1514 1515 1517 1518 1520 1521 1522 1524 1525 1525 1526 1526 1526 1526 1526 1525 1525 1525 1525 1525 1525 1525 1524 1524 1525 1525 1525 1526 1527 1527 1527 1527 1527 1527 1527 1528
1495 1499 1502 1504 1506 1509 1511 1513 1514 1516 1517 1519 1520 1522 1523 1524 1524 1525 1525 1525 1526 1525 1525 1525 1525 1524 1524 1524 1524 1524 1524 1524 1525 1525 1525 1526 1526 1526 1526 1525 1526 1526 1526
1495 1498 1502 1504 1505 1507 1509 1511 1513 1515 1517 1518 1519 1521 1522 1523 1524 1524 1524 1525 1525 1525 1525 1524 1524 1524 1524 1524 1524 1523 1524 1524 1524 1524 1524 1524 1525 1525 1525 1525 1525 1524 1524
1494 1498 1501 1503 1505 1506 1507 1510 1512 1514 1516 1517 1518 1520 1521 1522 1522 1523 1523 1524 1524 1524 1524 1523 1523 1523 1523 1523 1523 1523 1523 1523 1523 1523 1523 1523 1523 1523 1524 1524 1524 1524 1522
1494 1498 1500 1503 1505 1506 1507 1509 1511 1513 1514 1516 1517 1519 1519 1520 1521 1521 1522 1522 1523 1523 1522 1522 1522 1522 1522 1522 1522 1522 1522 1522 1522 1522 1522 1522 1522 1522 1522 1522 1522 1521 1521
1493 1497 1500 1502 1504 1506 1508 1509 1510 1512 1514 1515 1516 1517 1518 1518 1519 1519 1520 1521 1521 1521 1521 1521 1521 1521 1521 1521 1521 1521 1521 1521 1521 1521 1520 1520 1520 1520 1520 1520 1519 1519 1519
1493 1496 1499 1502 1504 1505 1507 1508 1509 1511 1512 1513 1514 1515 1516 1517 1517 1518 1518 1519 1519 1519 1519 1519 1519 1519 1519 1520 1519 1519 1519 1519 1519 1519 1519 1518 1518 1518 1518 1517 1517 1516 1516
1494 1497 1499 1502 1504 1505 1506 1507 1508 1509 1511 1512 1513 1513 1514 1515 1515 1516 1516 1516 1517 1517 1517 1517 1517 1517 1517 1517 1517 1517 1517 1517 1517 1516 1516 1516 1516 1515 1515 1515 1514 1514 1514
1495 1497 1500 1502 1504 1505 1506 1507 1508 1509 1510 1511 1512 1512 1513 1513 1514 1514 1514 1514 1515 1515 1515 1515 1515 1515 1515 1515 1515 1515 1515 1514 1514 1514 1514 1513 1513 1513 1512 1512 1512 1511 1510
1495 1498 1500 1502 1504 1505 1505 1506 1507 1508 1509 1510 1511 1511 1511 1511 1512 1512 1512 1512 1513 1513 1513 1513 1513 1513 1513 1513 1513 1513 1512 1512 1512 1512 1511 1511 1511 1510 1510 1510 1508 1508 1507
1495 1498 1500 1502 1503 1504 1505 1505 1506 1507 1508 1508 1509 1509 1509 1510 1510 1510 1510 1510 1510 1511 1511 1511 1511 1511 1511 1511 1510 1510 1510 1509 1509 1508 1508 1508 1508 1507 1507 1506 1506 1505 1504
1495 1498 1499 1501 1502 1503 1504 1505 1505 1506 1507 1507 1508 1508 1508 1508 1508 1509 1508 1508 1508 1508 1508 1509 1508 1508 1508 1508 1508 1507 1507 1506 1506 1505 1505 1505 1504 1504 1503 1503 1502 1501 1500
1495 1497 1499 1500 1501 1502 1503 1504 1504 1505 1505 1506 1506 1506 1506 1506 1506 1506 1506 1506 1506 1506 1505 1505 1506 1506 1506 1506 1505 1505 1504 1504 1503 1503 1502 1502 1501 1500 1499 1499 1498 1497 1496
1494 1496 1498 1499 1500 1501 1501 1502 1502 1503 1503 1503 1503 1504 1504 1503 1503 1503 1504 1504 1504 1503 1503 1503 1503 1503 1503 1503 1502 1502 1501 1500 1500 1500 1499 1498 1498 1498 1496 1495 1494 1493 1492
1493 1495 1497 1498 1498 1499 1500 1500 1501 1501 1501 1501 1501 1501 1501 1501 1500 1501 1501 1501 1501 1501 1500 1500 1500 1500 1500 1499 1499 1499 1498 1497 1497 1496 1496 1495 1494 1494 1493 1492 1491 1489 1488
1493 1495 1496 1497 1497 1498 1498 1498 1499 1499 1499 1499 1499 1498 1498 1498 1498 1498 1498 1498 1498 1498 1498 1497 1497 1497 1497 1496 1496 1495 1495 1494 1494 1493 1493 1492 1491 1490 1489 1489 1488 1487 1485
1493 1494 1494 1495 1496 1496 1496 1496 1496 1496 1496 1496 1496 1496 1496 1496 1495 1495 1495 1496 1496 1495 1495 1495 1495 1494 1494 1493 1492 1492 1492 1491 1491 1490 1489 1488 1487 1486 1486 1485 1484 1483 1482
1493 1493 1493 1494 1495 1495 1494 1494 1494 1494 1494 1494 1493 1494 1494 1493 1493 1492 1492 1493 1492 1492 1493 1493 1492 1492 1491 1490 1490 1489 1488 1488 1487 1486 1486 1485 1483 1483 1482 1481 1480 1479 1478
1492 1493 1493 1493 1493 1493 1493 1493 1492 1492 1492 1491 1491 1491 1491 1491 1491 1490 1490 1490 1490 1489 1489 1489 1489 1489 1488 1487 1486 1485 1485 1484 1483 1482 1481 1481 1480 1479 1478 1477 1476 1475 1474
1491 1491 1491 1491 1491 1492 1491 1491 1490 1490 1490 1489 1489 1489 1489 1489 1488 1488 1488 1487 1487 1487 1486 1486 1485 1485 1484 1484 1483 1481 1481 1480 1479 1478 1478 1477 1476 1475 1474 1473 1473 1472 1471
1489 1489 1489 1490 1490 1489 1489 1488 1488 1488 1487 1487 1487 1487 1487 1487 1486 1485 1485 1484 1484 1483 1482 1482 1482 1481 1481 1480 1480 1479 1478 1477 1477 1476 1475 1474 1473 1473 1471 1470 1469 1468 1467